START_TIME,STEP,MOV.,M6,t_acc.,M7,t_acc.,M19,t_acc.,H36,t_acc.
1979-07-03 00:00:27.960 ,0,0,0.,12.0,0.,12.0,0.,12.0,0.,12.0
1979-07-03 00:00:39.960 ,0,0,0.,12.0,0.,12.0,0.,12.0,0.,12.0
1979-07-03 00:00:51.960 ,1,1,0.,12.0,0.,12.0,0.,12.0,0.,12.0
1979-07-03 00:01:03.960 ,1,1,0.,12.0,0.,12.0,0.,12.0,0.,12.0
1979-07-03 00:01:15.960 ,1,0,0.,12.0,0.,12.0,0.,12.0,0.,12.0
1979-07-03 00:01:27.960 ,1,0,0.,12.0,0.,12.0,0.,12.0,0.,12.0
1979-07-03 00:01:39.960 ,2,1,0.,12.0,0.,12.0,0.,12.0,0.,12.0
1979-07-03 00:01:51.960 ,2,1,0.,12.0,0.,12.0,0.,12.0,0.,12.0
1979-07-03 00:02:03.960 ,2,0,0.,12.0,0.,12.0,0.,12.0,0.,12.0
1979-07-03 00:02:15.960 ,2,0,0.,12.0,0.,12.0,0.,12.0,0.,12.0
1979-07-03 00:02:27.960 ,3,1,0.,12.0,0.,12.0,0.,12.0,0.,12.0
1979-07-03 00:02:39.960 ,3,1,0.,12.0,0.,12.0,0.,12.0,0.,12.0
1979-07-03 00:02:51.960 ,3,0,0.,12.0,0.,12.0,0.,12.0,0.,12.0
1979-07-03 00:03:03.960 ,3,0,0.,12.0,0.,12.0,0.,12.0,0.,12.0
1979-07-03 00:03:15.960 ,4,1,0.,12.0,0.,12.0,0.,12.0,0.,12.0
1979-07-03 00:03:27.960 ,4,1,0.,12.0,0.,12.0,0.,12.0,0.,12.0
1979-07-03 00:03:39.960 ,4,0,0.,12.0,0.,12.0,0.,12.0,0.,12.0
1979-07-03 00:03:51.960 ,4,0,0.,12.0,0.,12.0,0.,12.0,0.,12.0
1979-07-03 00:04:03.960 ,5,1,0.,12.0,0.,12.0,0.,12.0,0.,12.0
1979-07-03 00:04:15.960 ,5,1,0.,12.0,0.,12.0,0.,12.0,0.,12.0
1979-07-03 00:04:27.960 ,5,0,0.,12.0,0.,12.0,0.,12.0,0.,12.0
1979-07-03 00:04:39.960 ,5,0,0.,12.0,0.,12.0,0.,12.0,0.,12.0
1979-07-03 00:04:51.960 ,6,1,0.,12.0,0.,12.0,0.,12.0,0.,12.0
1979-07-03 00:05:03.960 ,6,1,0.,12.0,0.,12.0,0.,12.0,0.,12.0
1979-07-03 00:05:15.960 ,6,0,0.,12.0,0.,12.0,0.,12.0,0.,12.0
1979-07-03 00:05:27.960 ,6,0,0.,12.0,0.,12.0,0.,12.0,0.,12.0
1979-07-03 00:05:39.960 ,7,1,0.,12.0,0.,12.0,0.,12.0,0.,12.0
1979-07-03 00:05:51.960 ,7,1,0.,12.0,0.,12.0,0.,12.0,0.,12.0
1979-07-03 00:06:03.960 ,7,0,0.,12.0,0.,12.0,0.,12.0,0.,12.0
1979-07-03 00:06:15.960 ,7,0,0.,12.0,0.,12.0,0.,12.0,0.,12.0
1979-07-03 00:06:27.960 ,7,1,0.,12.0,0.,12.0,0.,12.0,0.,12.0
1979-07-03 00:06:39.960 ,7,1,0.,12.0,0.,12.0,0.,12.0,0.,12.0
1979-07-03 00:06:51.960 ,7,0,0.,12.0,0.,12.0,0.,12.0,0.,12.0
1979-07-03 00:07:03.960 ,7,0,0.,12.0,0.,12.0,0.,12.0,0.,12.0
1979-07-03 00:07:15.960 ,6,1,0.,12.0,0.,12.0,0.,12.0,0.,12.0
1979-07-03 00:07:27.960 ,6,1,0.,12.0,0.,12.0,0.,12.0,0.,12.0
1979-07-03 00:07:39.960 ,6,0,0.,12.0,0.,12.0,0.,12.0,0.,12.0
1979-07-03 00:07:51.960 ,6,0,0.,12.0,0.,12.0,0.,12.0,0.,12.0
1979-07-03 00:08:03.960 ,5,1,0.,12.0,0.,12.0,0.,12.0,0.,12.0
1979-07-03 00:08:15.960 ,5,1,0.,12.0,0.,12.0,0.,12.0,0.,12.0
1979-07-03 00:08:27.960 ,5,0,0.,12.0,0.,12.0,0.,12.0,0.,12.0
1979-07-03 00:08:39.960 ,5,0,0.,12.0,0.,12.0,0.,12.0,0.,12.0
1979-07-03 00:08:51.950 ,4,1,0.,12.0,0.,12.0,0.,12.0,0.,12.0
1979-07-03 00:09:03.960 ,4,1,0.,12.0,0.,12.0,0.,12.0,0.,12.0
1979-07-03 00:09:15.950 ,4,0,0.,12.0,0.,12.0,0.,12.0,0.,12.0
1979-07-03 00:09:27.960 ,4,0,0.,12.0,0.,12.0,0.,12.0,0.,12.0
1979-07-03 00:09:39.950 ,3,1,0.,12.0,0.,12.0,0.,12.0,0.,12.0
1979-07-03 00:09:51.960 ,3,1,0.,12.0,0.,12.0,0.,12.0,0.,12.0
1979-07-03 00:10:03.950 ,3,0,0.,12.0,0.,12.0,0.,12.0,0.,12.0
1979-07-03 00:10:15.960 ,3,0,0.,12.0,0.,12.0,0.,12.0,0.,12.0
1979-07-03 00:10:27.950 ,2,1,0.,12.0,0.,12.0,0.,12.0,0.,12.0
1979-07-03 00:10:39.950 ,2,1,0.,12.0,0.,12.0,0.,12.0,0.,12.0
1979-07-03 00:10:51.950 ,2,0,0.,12.0,0.,12.0,0.,12.0,0.,12.0
1979-07-03 00:11:03.950 ,2,0,0.,12.0,0.,12.0,0.,12.0,0.,12.0
1979-07-03 00:11:15.950 ,1,1,0.,12.0,0.,12.0,0.,12.0,0.,12.0
1979-07-03 00:11:27.950 ,1,1,0.,12.0,0.,12.0,0.,12.0,0.,12.0
1979-07-03 00:11:39.950 ,1,0,0.,12.0,0.,12.0,0.,12.0,0.,12.0
1979-07-03 00:11:51.950 ,1,0,0.,12.0,0.,12.0,0.,12.0,0.,12.0
1979-07-03 00:12:03.950 ,0,1,0.,12.0,0.,12.0,0.,12.0,0.,12.0
1979-07-03 00:12:15.950 ,0,1,0.,12.0,0.,12.0,0.,12.0,0.,12.0
1979-07-03 00:12:27.950 ,0,0,0.,12.0,0.,12.0,0.,12.0,0.,12.0
1979-07-03 00:12:39.950 ,0,0,0.,12.0,0.,12.0,0.,12.0,0.,12.0
1979-07-03 00:12:51.950 ,0,1,0.,12.0,0.,12.0,0.,12.0,0.,12.0
1979-07-03 00:13:03.950 ,0,1,0.,12.0,0.,12.0,0.,12.0,0.,12.0
1979-07-03 00:13:15.950 ,0,0,0.,12.0,0.,12.0,0.,12.0,0.,12.0
1979-07-03 00:13:27.950 ,0,0,0.,12.0,0.,12.0,0.,12.0,0.,12.0
1979-07-03 00:13:39.950 ,1,1,0.,12.0,0.,12.0,0.,12.0,0.,12.0
1979-07-03 00:13:51.950 ,1,1,0.,12.0,0.,12.0,0.,12.0,0.,12.0
1979-07-03 00:14:03.950 ,1,0,0.,12.0,0.,12.0,0.,12.0,0.,12.0
1979-07-03 00:14:15.950 ,1,0,0.,12.0,0.,12.0,0.,12.0,0.,12.0
1979-07-03 00:14:27.950 ,2,1,0.,12.0,0.,12.0,0.,12.0,0.,12.0
1979-07-03 00:14:39.950 ,2,1,0.,12.0,0.,12.0,0.,12.0,0.,12.0
1979-07-03 00:14:51.950 ,2,0,0.,12.0,0.,12.0,0.,12.0,0.,12.0
1979-07-03 00:15:03.950 ,2,0,0.,12.0,0.,12.0,0.,12.0,0.,12.0
1979-07-03 00:15:15.950 ,3,1,0.,12.0,0.,12.0,0.,12.0,0.,12.0
1979-07-03 00:15:27.950 ,3,1,0.,12.0,0.,12.0,0.,12.0,0.,12.0
1979-07-03 00:15:39.950 ,3,0,0.,12.0,0.,12.0,0.,12.0,0.,12.0
1979-07-03 00:15:51.950 ,3,0,0.,12.0,0.,12.0,0.,12.0,0.,12.0
1979-07-03 00:16:03.950 ,4,1,0.,12.0,0.,12.0,0.,12.0,0.,12.0
1979-07-03 00:16:15.950 ,4,1,0.,12.0,0.,12.0,0.,12.0,0.,12.0
1979-07-03 00:16:27.950 ,4,0,0.,12.0,0.,12.0,0.,12.0,0.,12.0
1979-07-03 00:16:39.950 ,4,0,0.,12.0,0.,12.0,0.,12.0,0.,12.0
1979-07-03 00:16:51.950 ,5,1,0.,12.0,0.,12.0,0.,12.0,0.,12.0
1979-07-03 00:17:03.950 ,5,1,0.,12.0,0.,12.0,0.,12.0,0.,12.0
1979-07-03 00:17:15.950 ,5,0,0.,12.0,0.,12.0,0.,12.0,0.,12.0
1979-07-03 00:17:27.950 ,5,0,0.,12.0,0.,12.0,0.,12.0,0.,12.0
1979-07-03 00:17:39.950 ,6,1,0.,12.0,0.,12.0,0.,12.0,0.,12.0
1979-07-03 00:17:51.950 ,6,1,0.,12.0,0.,12.0,0.,12.0,0.,12.0
1979-07-03 00:18:03.950 ,6,0,0.,12.0,0.,12.0,0.,12.0,0.,12.0
1979-07-03 00:18:15.950 ,6,0,0.,12.0,0.,12.0,0.,12.0,0.,12.0
1979-07-03 00:18:27.950 ,7,0,0.,12.0,0.,12.0,0.,12.0,0.,12.0
1979-07-03 00:18:39.950 ,7,0,0.,12.0,0.,12.0,0.,12.0,0.,12.0
1979-07-03 00:18:51.950 ,7,0,0.,12.0,0.,12.0,0.,12.0,0.,12.0
1979-07-03 00:19:03.950 ,7,0,0.,12.0,0.,12.0,0.,12.0,0.,12.0
1979-07-03 00:19:15.950 ,4,1,0.,12.0,0.,12.0,0.,12.0,0.,12.0
1979-07-03 00:19:27.950 ,4,1,0.,12.0,0.,12.0,0.,12.0,0.,12.0
1979-07-03 00:19:39.950 ,0,1,0.,12.0,0.,12.0,0.,12.0,0.,12.0
1979-07-03 00:19:51.950 ,0,1,0.,12.0,0.,12.0,0.,12.0,0.,12.0
1979-07-03 00:20:03.950 ,3,1,0.,12.0,0.,12.0,0.,12.0,0.,12.0
1979-07-03 00:20:15.950 ,3,1,0.,12.0,0.,12.0,0.,12.0,0.,12.0
1979-07-03 00:20:27.950 ,7,1,0.,12.0,0.,12.0,0.,12.0,0.,12.0
1979-07-03 00:20:39.950 ,7,1,0.,12.0,0.,12.0,0.,12.0,0.,12.0
1979-07-03 00:20:51.950 ,4,1,0.,12.0,0.,12.0,0.,12.0,0.,12.0
1979-07-03 00:21:03.950 ,4,1,0.,12.0,0.,12.0,0.,12.0,0.,12.0
1979-07-03 00:21:15.950 ,0,1,0.,12.0,0.,12.0,0.,12.0,0.,12.0
1979-07-03 00:21:27.950 ,0,1,0.,12.0,0.,12.0,0.,12.0,0.,12.0
1979-07-03 00:21:39.950 ,3,1,0.,12.0,0.,12.0,0.,12.0,0.,12.0
1979-07-03 00:21:51.950 ,3,1,0.,12.0,0.,12.0,0.,12.0,0.,12.0
1979-07-03 00:22:03.950 ,7,1,0.,12.0,0.,12.0,0.,12.0,0.,12.0
1979-07-03 00:22:15.950 ,7,1,0.,12.0,0.,12.0,0.,12.0,0.,12.0
1979-07-03 00:22:27.950 ,4,1,0.,12.0,0.,12.0,0.,12.0,0.,12.0
1979-07-03 00:22:39.950 ,4,1,0.,12.0,0.,12.0,0.,12.0,0.,12.0
1979-07-03 00:22:51.950 ,0,1,0.,12.0,0.,12.0,0.,12.0,0.,12.0
1979-07-03 00:23:03.950 ,0,1,0.,12.0,0.,12.0,0.,12.0,0.,12.0
1979-07-03 00:23:15.950 ,3,1,0.,12.0,0.,12.0,0.,12.0,0.,12.0
1979-07-03 00:23:27.950 ,3,1,0.,12.0,0.,12.0,0.,12.0,0.,12.0
1979-07-03 00:23:39.950 ,7,1,0.,12.0,0.,12.0,0.,12.0,0.,12.0
1979-07-03 00:23:51.950 ,7,1,0.,12.0,0.,12.0,0.,12.0,0.,12.0
1979-07-03 00:24:03.950 ,4,1,0.,12.0,0.,12.0,0.,12.0,0.,12.0
1979-07-03 00:24:15.950 ,4,1,0.,12.0,0.,12.0,0.,12.0,0.,12.0
1979-07-03 00:24:27.950 ,0,1,0.,12.0,0.,12.0,0.,12.0,0.,12.0
1979-07-03 00:24:39.950 ,0,1,0.,12.0,0.,12.0,0.,12.0,0.,12.0
1979-07-03 00:24:51.950 ,3,1,0.,12.0,0.,12.0,0.,12.0,0.,12.0
1979-07-03 00:25:03.950 ,3,1,0.,12.0,0.,12.0,0.,12.0,0.,12.0
1979-07-03 00:25:15.950 ,7,1,0.,12.0,0.,12.0,0.,12.0,0.,12.0
1979-07-03 00:25:27.950 ,7,1,0.,12.0,0.,12.0,0.,12.0,0.,12.0
1979-07-03 00:25:39.950 ,4,1,0.,12.0,0.,12.0,0.,12.0,0.,12.0
1979-07-03 00:25:51.950 ,4,1,0.,12.0,0.,12.0,0.,12.0,0.,12.0
1979-07-03 00:26:03.950 ,0,1,0.,12.0,0.,12.0,0.,12.0,0.,12.0
1979-07-03 00:26:15.950 ,0,1,0.,12.0,0.,12.0,0.,12.0,0.,12.0
1979-07-03 00:26:27.950 ,3,1,0.,12.0,0.,12.0,0.,12.0,0.,12.0
1979-07-03 00:26:39.950 ,3,1,0.,12.0,0.,12.0,0.,12.0,0.,12.0
1979-07-03 00:26:51.950 ,7,1,0.,12.0,0.,12.0,0.,12.0,0.,12.0
1979-07-03 00:27:03.950 ,7,1,0.,12.0,0.,12.0,0.,12.0,0.,12.0
1979-07-03 00:27:15.950 ,4,1,0.,12.0,0.,12.0,0.,12.0,0.,12.0
1979-07-03 00:27:27.950 ,4,1,0.,12.0,0.,12.0,0.,12.0,0.,12.0
1979-07-03 00:27:39.950 ,0,1,0.,12.0,0.,12.0,0.,12.0,0.,12.0
1979-07-03 00:27:51.950 ,0,1,0.,12.0,0.,12.0,0.,12.0,0.,12.0
1979-07-03 00:28:03.950 ,3,1,0.,12.0,0.,12.0,0.,12.0,0.,12.0
1979-07-03 00:28:15.950 ,3,1,0.,12.0,0.,12.0,0.,12.0,0.,12.0
1979-07-03 00:28:27.950 ,7,1,0.,12.0,0.,12.0,0.,12.0,0.,12.0
1979-07-03 00:28:39.950 ,7,1,0.,12.0,0.,12.0,0.,12.0,0.,12.0
1979-07-03 00:28:51.950 ,4,1,0.,12.0,0.,12.0,0.,12.0,0.,12.0
1979-07-03 00:29:03.950 ,4,1,0.,12.0,0.,12.0,0.,12.0,0.,12.0
1979-07-03 00:29:15.950 ,0,1,0.,12.0,0.,12.0,0.,12.0,0.,12.0
1979-07-03 00:29:27.950 ,0,1,0.,12.0,0.,12.0,0.,12.0,0.,12.0
1979-07-03 00:29:39.950 ,0,0,0.,12.0,0.,12.0,0.,12.0,0.,12.0
1979-07-03 00:29:51.950 ,0,0,0.,12.0,0.,12.0,0.,12.0,0.,12.0
1979-07-03 00:30:03.950 ,0,0,0.,12.0,0.,12.0,0.,12.0,0.,12.0
1979-07-03 00:30:15.950 ,0,0,0.,12.0,0.,12.0,0.,12.0,0.,12.0
1979-07-03 00:30:27.950 ,5,1,0.,12.0,0.,12.0,0.,12.0,0.,12.0
1979-07-03 00:30:39.950 ,5,1,0.,12.0,0.,12.0,0.,12.0,0.,12.0
1979-07-03 00:30:51.950 ,5,0,1.,12.0,0.,12.0,0.,12.0,0.,12.0
1979-07-03 00:31:03.950 ,5,0,0.,12.0,0.,12.0,0.,12.0,0.,12.0
1979-07-03 00:32:03.950 ,0,0,0.,12.0,0.,12.0,0.,12.0,0.,12.0
1979-07-03 00:32:15.950 ,0,0,0.,12.0,0.,12.0,0.,12.0,0.,12.0
1979-07-03 00:32:27.950 ,0,0,0.,12.0,0.,12.0,0.,12.0,0.,12.0
1979-07-03 00:32:39.950 ,0,0,0.,12.0,0.,12.0,0.,12.0,0.,12.0
1979-07-03 00:32:51.950 ,2,1,0.,12.0,0.,12.0,0.,12.0,0.,12.0
1979-07-03 00:33:03.950 ,2,1,0.,12.0,0.,12.0,0.,12.0,0.,12.0
1979-07-03 00:33:15.950 ,2,0,0.,12.0,0.,12.0,0.,12.0,0.,12.0
1979-07-03 00:33:27.950 ,2,0,0.,12.0,0.,12.0,0.,12.0,0.,12.0
1979-07-03 00:33:39.950 ,1,1,0.,12.0,0.,12.0,0.,12.0,0.,12.0
1979-07-03 00:33:51.950 ,1,1,0.,12.0,0.,12.0,0.,12.0,0.,12.0
1979-07-03 00:34:03.950 ,1,0,0.,12.0,0.,12.0,0.,12.0,0.,12.0
1979-07-03 00:34:15.950 ,1,0,0.,12.0,0.,12.0,0.,12.0,0.,12.0
1979-07-03 00:34:27.950 ,0,1,0.,12.0,0.,12.0,0.,12.0,0.,12.0
1979-07-03 00:34:39.950 ,0,1,0.,12.0,0.,12.0,0.,12.0,0.,12.0
1979-07-03 00:34:51.950 ,0,0,0.,12.0,0.,12.0,0.,12.0,0.,12.0
1979-07-03 00:35:03.950 ,0,0,0.,12.0,0.,12.0,0.,12.0,0.,12.0
1979-07-03 00:35:15.950 ,0,1,0.,12.0,0.,12.0,0.,12.0,0.,12.0
1979-07-03 00:35:27.950 ,0,1,0.,12.0,0.,12.0,0.,12.0,0.,12.0
1979-07-03 00:35:39.950 ,0,0,0.,12.0,0.,12.0,0.,12.0,0.,12.0
1979-07-03 00:35:51.950 ,0,0,0.,12.0,0.,12.0,0.,12.0,0.,12.0
1979-07-03 00:36:03.950 ,1,1,0.,12.0,0.,12.0,0.,12.0,0.,12.0
1979-07-03 00:36:15.950 ,1,1,0.,12.0,0.,12.0,0.,12.0,0.,12.0
1979-07-03 00:36:27.950 ,1,0,0.,12.0,0.,12.0,0.,12.0,0.,12.0
1979-07-03 00:36:39.950 ,1,0,0.,12.0,0.,12.0,0.,12.0,0.,12.0
1979-07-03 00:36:51.950 ,2,1,0.,12.0,0.,12.0,0.,12.0,0.,12.0
1979-07-03 00:37:03.950 ,2,1,0.,12.0,0.,12.0,0.,12.0,0.,12.0
1979-07-03 00:37:15.950 ,2,0,0.,12.0,0.,12.0,0.,12.0,0.,12.0
1979-07-03 00:37:27.950 ,2,0,0.,12.0,0.,12.0,0.,12.0,0.,12.0
1979-07-03 00:37:39.950 ,3,1,0.,12.0,0.,12.0,0.,12.0,0.,12.0
1979-07-03 00:37:51.950 ,3,1,0.,12.0,0.,12.0,0.,12.0,0.,12.0
1979-07-03 00:38:03.950 ,3,0,0.,12.0,0.,12.0,0.,12.0,0.,12.0
1979-07-03 00:38:15.950 ,3,0,0.,12.0,0.,12.0,0.,12.0,0.,12.0
1979-07-03 00:38:27.950 ,4,1,0.,12.0,0.,12.0,0.,12.0,0.,12.0
1979-07-03 00:38:39.950 ,4,1,0.,12.0,0.,12.0,0.,12.0,0.,12.0
1979-07-03 00:38:51.950 ,4,0,0.,12.0,0.,12.0,0.,12.0,0.,12.0
1979-07-03 00:39:03.950 ,4,0,0.,12.0,0.,12.0,0.,12.0,0.,12.0
1979-07-03 00:39:15.950 ,5,1,0.,12.0,0.,12.0,0.,12.0,0.,12.0
1979-07-03 00:39:27.950 ,5,1,0.,12.0,0.,12.0,0.,12.0,0.,12.0
1979-07-03 00:39:39.950 ,5,0,0.,12.0,0.,12.0,0.,12.0,0.,12.0
1979-07-03 00:39:51.950 ,5,0,1.,12.0,0.,12.0,0.,12.0,0.,12.0
1979-07-03 00:40:03.950 ,6,1,0.,12.0,0.,12.0,0.,12.0,0.,12.0
1979-07-03 00:40:15.950 ,6,1,0.,12.0,0.,12.0,0.,12.0,0.,12.0
1979-07-03 00:40:27.950 ,6,0,0.,12.0,0.,12.0,0.,12.0,0.,12.0
1979-07-03 00:40:39.950 ,6,0,0.,12.0,0.,12.0,0.,12.0,0.,12.0
1979-07-03 00:40:51.950 ,7,1,0.,12.0,0.,12.0,0.,12.0,0.,12.0
1979-07-03 00:41:03.950 ,7,1,0.,12.0,0.,12.0,0.,12.0,0.,12.0
1979-07-03 00:41:15.950 ,7,0,0.,12.0,0.,12.0,0.,12.0,0.,12.0
1979-07-03 00:41:27.950 ,7,0,0.,12.0,0.,12.0,0.,12.0,0.,12.0
1979-07-03 00:41:39.950 ,7,1,0.,12.0,0.,12.0,0.,12.0,0.,12.0
1979-07-03 00:41:51.950 ,7,1,0.,12.0,0.,12.0,0.,12.0,0.,12.0
1979-07-03 00:42:03.950 ,7,0,0.,12.0,0.,12.0,0.,12.0,0.,12.0
1979-07-03 00:42:15.950 ,7,0,0.,12.0,0.,12.0,0.,12.0,0.,12.0
1979-07-03 00:42:27.950 ,6,1,0.,12.0,0.,12.0,0.,12.0,0.,12.0
1979-07-03 00:42:39.950 ,6,1,0.,12.0,0.,12.0,0.,12.0,0.,12.0
1979-07-03 00:42:51.950 ,6,0,0.,12.0,0.,12.0,0.,12.0,0.,12.0
1979-07-03 00:43:03.950 ,6,0,0.,12.0,0.,12.0,0.,12.0,0.,12.0
1979-07-03 00:43:15.950 ,5,1,0.,12.0,0.,12.0,0.,12.0,0.,12.0
1979-07-03 00:43:27.950 ,5,1,0.,12.0,0.,12.0,0.,12.0,0.,12.0
1979-07-03 00:43:39.950 ,5,0,0.,12.0,0.,12.0,0.,12.0,0.,12.0
1979-07-03 00:43:51.950 ,5,0,0.,12.0,0.,12.0,0.,12.0,0.,12.0
1979-07-03 00:44:51.950 ,0,0,0.,12.0,0.,12.0,0.,12.0,0.,12.0
1979-07-03 00:45:03.950 ,0,0,0.,12.0,0.,12.0,0.,12.0,0.,12.0
1979-07-03 00:45:15.950 ,0,0,0.,12.0,0.,12.0,0.,12.0,0.,12.0
1979-07-03 00:45:27.950 ,0,0,0.,12.0,0.,12.0,0.,12.0,0.,12.0
1979-07-03 00:46:27.950 ,0,0,0.,12.0,0.,12.0,0.,12.0,0.,12.0
1979-07-03 00:46:39.950 ,0,0,0.,12.0,0.,12.0,0.,12.0,0.,12.0
1979-07-03 00:46:51.950 ,0,0,0.,12.0,0.,12.0,0.,12.0,0.,12.0
1979-07-03 00:47:03.950 ,0,0,0.,12.0,0.,12.0,0.,12.0,0.,12.0
1979-07-03 00:47:15.950 ,0,1,0.,12.0,0.,12.0,0.,12.0,0.,12.0
1979-07-03 00:47:27.950 ,0,1,0.,12.0,0.,12.0,0.,12.0,0.,12.0
1979-07-03 00:47:39.950 ,0,0,0.,12.0,0.,12.0,0.,12.0,0.,12.0
1979-07-03 00:47:51.950 ,0,0,0.,12.0,0.,12.0,0.,12.0,0.,12.0
1979-07-03 00:48:03.950 ,0,1,0.,12.0,0.,12.0,0.,12.0,0.,12.0
1979-07-03 00:48:15.950 ,0,1,0.,12.0,0.,12.0,0.,12.0,0.,12.0
1979-07-03 00:48:27.950 ,0,0,0.,12.0,0.,12.0,0.,12.0,0.,12.0
1979-07-03 00:48:39.950 ,0,0,0.,12.0,0.,12.0,0.,12.0,0.,12.0
1979-07-03 00:48:51.950 ,1,1,0.,12.0,0.,12.0,0.,12.0,0.,12.0
1979-07-03 00:49:03.950 ,1,1,0.,12.0,0.,12.0,0.,12.0,0.,12.0
1979-07-03 00:49:15.950 ,1,0,0.,12.0,0.,12.0,0.,12.0,0.,12.0
1979-07-03 00:49:27.950 ,1,0,0.,12.0,0.,12.0,0.,12.0,0.,12.0
1979-07-03 00:49:39.950 ,2,1,0.,12.0,0.,12.0,0.,12.0,0.,12.0
1979-07-03 00:49:51.950 ,2,1,0.,12.0,0.,12.0,0.,12.0,0.,12.0
1979-07-03 00:50:03.950 ,2,0,0.,12.0,0.,12.0,0.,12.0,0.,12.0
1979-07-03 00:50:15.950 ,2,0,0.,12.0,0.,12.0,0.,12.0,0.,12.0
1979-07-03 00:50:27.950 ,3,1,0.,12.0,0.,12.0,0.,12.0,0.,12.0
1979-07-03 00:50:39.950 ,3,1,0.,12.0,0.,12.0,0.,12.0,0.,12.0
1979-07-03 00:50:51.950 ,3,0,0.,12.0,0.,12.0,0.,12.0,0.,12.0
1979-07-03 00:51:03.950 ,3,0,0.,12.0,0.,12.0,0.,12.0,0.,12.0
1979-07-03 00:51:15.950 ,4,1,0.,12.0,0.,12.0,0.,12.0,0.,12.0
1979-07-03 00:51:27.950 ,4,1,0.,12.0,0.,12.0,0.,12.0,0.,12.0
1979-07-03 00:51:39.950 ,4,0,0.,12.0,0.,12.0,0.,12.0,0.,12.0
1979-07-03 00:51:51.950 ,4,0,0.,12.0,0.,12.0,0.,12.0,0.,12.0
1979-07-03 00:52:03.950 ,5,1,0.,12.0,0.,12.0,0.,12.0,0.,12.0
1979-07-03 00:52:15.950 ,5,1,0.,12.0,0.,12.0,0.,12.0,0.,12.0
1979-07-03 00:52:27.950 ,5,0,0.,12.0,0.,12.0,0.,12.0,0.,12.0
1979-07-03 00:52:39.950 ,5,0,0.,12.0,0.,12.0,0.,12.0,0.,12.0
1979-07-03 00:52:51.950 ,6,1,0.,12.0,0.,12.0,0.,12.0,0.,12.0
1979-07-03 00:53:03.950 ,6,1,0.,12.0,0.,12.0,0.,12.0,0.,12.0
1979-07-03 00:53:15.950 ,6,0,0.,12.0,0.,12.0,0.,12.0,0.,12.0
1979-07-03 00:53:27.950 ,6,0,0.,12.0,0.,12.0,0.,12.0,0.,12.0
1979-07-03 00:53:39.950 ,7,1,0.,12.0,0.,12.0,0.,12.0,0.,12.0
1979-07-03 00:53:51.950 ,7,1,0.,12.0,0.,12.0,0.,12.0,0.,12.0
1979-07-03 00:54:03.950 ,7,0,0.,12.0,0.,12.0,0.,12.0,0.,12.0
1979-07-03 00:54:15.950 ,7,0,0.,12.0,0.,12.0,0.,12.0,0.,12.0
1979-07-03 00:54:27.950 ,7,1,0.,12.0,0.,12.0,0.,12.0,0.,12.0
1979-07-03 00:54:39.950 ,7,1,0.,12.0,0.,12.0,0.,12.0,0.,12.0
1979-07-03 00:54:51.950 ,7,0,0.,12.0,0.,12.0,0.,12.0,0.,12.0
1979-07-03 00:55:03.950 ,7,0,0.,12.0,0.,12.0,0.,12.0,0.,12.0
1979-07-03 00:55:15.950 ,6,1,0.,12.0,0.,12.0,0.,12.0,0.,12.0
1979-07-03 00:55:27.950 ,6,1,0.,12.0,0.,12.0,0.,12.0,0.,12.0
1979-07-03 00:55:39.950 ,6,0,0.,12.0,0.,12.0,0.,12.0,0.,12.0
1979-07-03 00:55:51.950 ,6,0,0.,12.0,0.,12.0,0.,12.0,0.,12.0
1979-07-03 00:56:03.950 ,5,1,0.,12.0,0.,12.0,0.,12.0,0.,12.0
1979-07-03 00:56:15.950 ,5,1,0.,12.0,0.,12.0,0.,12.0,0.,12.0
1979-07-03 00:56:27.950 ,5,0,0.,12.0,0.,12.0,0.,12.0,0.,12.0
1979-07-03 00:56:39.950 ,5,0,0.,12.0,0.,12.0,0.,12.0,0.,12.0
1979-07-03 00:56:51.950 ,4,1,0.,12.0,0.,12.0,0.,12.0,0.,12.0
1979-07-03 00:57:03.950 ,4,1,0.,12.0,0.,12.0,0.,12.0,0.,12.0
1979-07-03 00:57:15.950 ,4,0,0.,12.0,0.,12.0,0.,12.0,0.,12.0
1979-07-03 00:57:27.950 ,4,0,0.,12.0,0.,12.0,0.,12.0,0.,12.0
1979-07-03 00:57:39.950 ,3,1,0.,12.0,0.,12.0,0.,12.0,0.,12.0
1979-07-03 00:57:51.950 ,3,1,0.,12.0,0.,12.0,0.,12.0,0.,12.0
1979-07-03 00:58:03.950 ,3,0,0.,12.0,0.,12.0,0.,12.0,0.,12.0
1979-07-03 00:58:15.950 ,3,0,0.,12.0,0.,12.0,0.,12.0,0.,12.0
1979-07-03 00:58:27.950 ,2,1,0.,12.0,0.,12.0,0.,12.0,0.,12.0
1979-07-03 00:58:39.950 ,2,1,0.,12.0,0.,12.0,0.,12.0,0.,12.0
1979-07-03 00:58:51.950 ,2,0,0.,12.0,0.,12.0,0.,12.0,0.,12.0
1979-07-03 00:59:03.950 ,2,0,0.,12.0,0.,12.0,0.,12.0,0.,12.0
1979-07-03 00:59:15.950 ,1,1,0.,12.0,0.,12.0,0.,12.0,0.,12.0
1979-07-03 00:59:27.950 ,1,1,0.,12.0,0.,12.0,0.,12.0,0.,12.0
1979-07-03 00:59:39.950 ,1,0,0.,12.0,0.,12.0,0.,12.0,0.,12.0
1979-07-03 00:59:51.950 ,1,0,0.,12.0,0.,12.0,0.,12.0,0.,12.0
1979-07-03 01:00:03.950 ,0,1,0.,12.0,0.,12.0,0.,12.0,0.,12.0
1979-07-03 01:00:15.950 ,0,1,0.,12.0,0.,12.0,0.,12.0,0.,12.0
1979-07-03 01:00:27.950 ,0,0,0.,12.0,0.,12.0,0.,12.0,0.,12.0
1979-07-03 01:00:39.950 ,0,0,0.,12.0,0.,12.0,0.,12.0,0.,12.0
1979-07-03 01:00:51.950 ,0,1,0.,12.0,0.,12.0,0.,12.0,0.,12.0
1979-07-03 01:01:03.950 ,0,1,0.,12.0,0.,12.0,0.,12.0,0.,12.0
1979-07-03 01:01:15.950 ,0,0,0.,12.0,0.,12.0,0.,12.0,0.,12.0
1979-07-03 01:01:27.950 ,0,0,0.,12.0,0.,12.0,0.,12.0,0.,12.0
1979-07-03 01:01:39.950 ,1,1,0.,12.0,0.,12.0,0.,12.0,0.,12.0
1979-07-03 01:01:51.950 ,1,1,0.,12.0,0.,12.0,0.,12.0,0.,12.0
1979-07-03 01:02:03.950 ,1,0,0.,12.0,0.,12.0,0.,12.0,0.,12.0
1979-07-03 01:02:15.950 ,1,0,0.,12.0,0.,12.0,0.,12.0,0.,12.0
1979-07-03 01:02:27.950 ,2,1,0.,12.0,0.,12.0,0.,12.0,0.,12.0
1979-07-03 01:02:39.950 ,2,1,0.,12.0,0.,12.0,0.,12.0,0.,12.0
1979-07-03 01:02:51.950 ,2,0,0.,12.0,0.,12.0,0.,12.0,0.,12.0
1979-07-03 01:03:03.950 ,2,0,0.,12.0,0.,12.0,0.,12.0,0.,12.0
1979-07-03 01:03:15.950 ,3,1,0.,12.0,0.,12.0,0.,12.0,0.,12.0
1979-07-03 01:03:27.950 ,3,1,0.,12.0,0.,12.0,0.,12.0,0.,12.0
1979-07-03 01:03:39.950 ,3,0,0.,12.0,0.,12.0,0.,12.0,0.,12.0
1979-07-03 01:03:51.950 ,3,0,0.,12.0,0.,12.0,0.,12.0,0.,12.0
1979-07-03 01:04:03.950 ,4,1,0.,12.0,0.,12.0,0.,12.0,0.,12.0
1979-07-03 01:04:15.950 ,4,1,0.,12.0,0.,12.0,0.,12.0,0.,12.0
1979-07-03 01:04:27.950 ,4,0,0.,12.0,0.,12.0,0.,12.0,0.,12.0
1979-07-03 01:04:39.950 ,4,0,0.,12.0,0.,12.0,0.,12.0,0.,12.0
1979-07-03 01:04:51.950 ,5,1,0.,12.0,0.,12.0,0.,12.0,0.,12.0
1979-07-03 01:05:03.950 ,5,1,0.,12.0,0.,12.0,0.,12.0,0.,12.0
1979-07-03 01:05:15.950 ,5,0,0.,12.0,0.,12.0,0.,12.0,0.,12.0
1979-07-03 01:05:27.950 ,5,0,0.,12.0,0.,12.0,0.,12.0,0.,12.0
1979-07-03 01:05:39.950 ,6,1,0.,12.0,0.,12.0,0.,12.0,0.,12.0
1979-07-03 01:05:51.950 ,6,1,0.,12.0,0.,12.0,0.,12.0,0.,12.0
1979-07-03 01:06:03.950 ,6,0,0.,12.0,0.,12.0,0.,12.0,0.,12.0
1979-07-03 01:06:15.950 ,6,0,0.,12.0,0.,12.0,0.,12.0,0.,12.0
1979-07-03 01:06:27.950 ,7,0,0.,12.0,0.,12.0,0.,12.0,0.,12.0
1979-07-03 01:06:39.950 ,7,0,0.,12.0,0.,12.0,0.,12.0,0.,12.0
1979-07-03 01:06:51.950 ,7,0,0.,12.0,0.,12.0,0.,12.0,0.,12.0
1979-07-03 01:07:03.950 ,7,0,0.,12.0,0.,12.0,0.,12.0,0.,12.0
1979-07-03 01:07:15.950 ,4,1,0.,12.0,0.,12.0,0.,12.0,0.,12.0
1979-07-03 01:07:27.950 ,4,1,0.,12.0,0.,12.0,0.,12.0,0.,12.0
1979-07-03 01:07:39.950 ,0,1,0.,12.0,0.,12.0,0.,12.0,0.,12.0
1979-07-03 01:07:51.950 ,0,1,0.,12.0,0.,12.0,0.,12.0,0.,12.0
1979-07-03 01:08:03.950 ,3,1,0.,12.0,0.,12.0,0.,12.0,0.,12.0
1979-07-03 01:08:15.950 ,3,1,0.,12.0,0.,12.0,0.,12.0,0.,12.0
1979-07-03 01:08:27.950 ,7,1,0.,12.0,0.,12.0,0.,12.0,0.,12.0
1979-07-03 01:08:39.950 ,7,1,0.,12.0,0.,12.0,0.,12.0,0.,12.0
1979-07-03 01:08:51.950 ,4,1,0.,12.0,0.,12.0,0.,12.0,0.,12.0
1979-07-03 01:09:03.950 ,4,1,0.,12.0,0.,12.0,0.,12.0,0.,12.0
1979-07-03 01:09:15.950 ,0,1,0.,12.0,0.,12.0,0.,12.0,0.,12.0
1979-07-03 01:09:27.950 ,0,1,0.,12.0,0.,12.0,0.,12.0,0.,12.0
1979-07-03 01:09:39.950 ,3,1,0.,12.0,0.,12.0,0.,12.0,0.,12.0
1979-07-03 01:09:51.950 ,3,1,0.,12.0,0.,12.0,0.,12.0,0.,12.0
1979-07-03 01:10:03.950 ,7,1,0.,12.0,0.,12.0,0.,12.0,0.,12.0
1979-07-03 01:10:15.950 ,7,1,0.,12.0,0.,12.0,0.,12.0,0.,12.0
1979-07-03 01:10:27.950 ,4,1,0.,12.0,0.,12.0,0.,12.0,0.,12.0
1979-07-03 01:10:39.950 ,4,1,0.,12.0,0.,12.0,0.,12.0,0.,12.0
1979-07-03 01:10:51.950 ,0,1,0.,12.0,0.,12.0,0.,12.0,0.,12.0
1979-07-03 01:11:03.950 ,0,1,0.,12.0,0.,12.0,0.,12.0,0.,12.0
1979-07-03 01:11:15.950 ,3,1,0.,12.0,0.,12.0,0.,12.0,0.,12.0
1979-07-03 01:11:27.950 ,3,1,0.,12.0,0.,12.0,0.,12.0,0.,12.0
1979-07-03 01:11:39.950 ,7,1,0.,12.0,0.,12.0,0.,12.0,0.,12.0
1979-07-03 01:11:51.950 ,7,1,0.,12.0,0.,12.0,0.,12.0,0.,12.0
1979-07-03 01:12:03.950 ,4,1,0.,12.0,0.,12.0,0.,12.0,0.,12.0
1979-07-03 01:12:15.950 ,4,1,0.,12.0,0.,12.0,0.,12.0,0.,12.0
1979-07-03 01:12:27.950 ,0,1,0.,12.0,0.,12.0,0.,12.0,0.,12.0
1979-07-03 01:12:39.950 ,0,1,0.,12.0,0.,12.0,0.,12.0,0.,12.0
1979-07-03 01:12:51.950 ,3,1,0.,12.0,0.,12.0,0.,12.0,0.,12.0
1979-07-03 01:13:03.950 ,3,1,0.,12.0,0.,12.0,0.,12.0,0.,12.0
1979-07-03 01:13:15.950 ,7,1,0.,12.0,0.,12.0,0.,12.0,0.,12.0
1979-07-03 01:13:27.950 ,7,1,0.,12.0,0.,12.0,0.,12.0,0.,12.0
1979-07-03 01:13:39.950 ,4,1,0.,12.0,0.,12.0,0.,12.0,0.,12.0
1979-07-03 01:13:51.950 ,4,1,0.,12.0,0.,12.0,0.,12.0,0.,12.0
1979-07-03 01:14:03.950 ,0,1,0.,12.0,0.,12.0,0.,12.0,0.,12.0
1979-07-03 01:14:15.950 ,0,1,0.,12.0,0.,12.0,0.,12.0,0.,12.0
1979-07-03 01:14:27.950 ,3,1,0.,12.0,0.,12.0,0.,12.0,0.,12.0
1979-07-03 01:14:39.950 ,3,1,0.,12.0,0.,12.0,0.,12.0,0.,12.0
1979-07-03 01:14:51.950 ,7,1,0.,12.0,0.,12.0,0.,12.0,0.,12.0
1979-07-03 01:15:03.950 ,7,1,0.,12.0,0.,12.0,0.,12.0,0.,12.0
1979-07-03 01:15:15.950 ,4,1,0.,12.0,0.,12.0,0.,12.0,0.,12.0
1979-07-03 01:15:27.950 ,4,1,0.,12.0,0.,12.0,0.,12.0,0.,12.0
1979-07-03 01:15:39.950 ,0,1,0.,12.0,0.,12.0,0.,12.0,0.,12.0
1979-07-03 01:15:51.950 ,0,1,0.,12.0,0.,12.0,0.,12.0,0.,12.0
1979-07-03 01:16:03.950 ,3,1,0.,12.0,0.,12.0,0.,12.0,0.,12.0
1979-07-03 01:16:15.950 ,3,1,0.,12.0,0.,12.0,0.,12.0,0.,12.0
1979-07-03 01:16:27.950 ,7,1,0.,12.0,0.,12.0,0.,12.0,0.,12.0
1979-07-03 01:16:39.950 ,7,1,0.,12.0,0.,12.0,0.,12.0,0.,12.0
1979-07-03 01:16:51.950 ,4,1,0.,12.0,0.,12.0,0.,12.0,0.,12.0
1979-07-03 01:17:03.950 ,4,1,0.,12.0,0.,12.0,0.,12.0,0.,12.0
1979-07-03 01:17:15.950 ,0,1,0.,12.0,0.,12.0,0.,12.0,0.,12.0
1979-07-03 01:17:27.950 ,0,1,0.,12.0,0.,12.0,0.,12.0,0.,12.0
1979-07-03 01:17:39.950 ,0,0,0.,12.0,0.,12.0,0.,12.0,0.,12.0
1979-07-03 01:17:51.950 ,0,0,0.,12.0,0.,12.0,0.,12.0,0.,12.0
1979-07-03 01:18:03.950 ,0,0,0.,12.0,0.,12.0,0.,12.0,0.,12.0
1979-07-03 01:18:15.950 ,0,0,0.,12.0,0.,12.0,0.,12.0,0.,12.0
1979-07-03 01:18:27.950 ,5,1,0.,12.0,0.,12.0,0.,12.0,0.,12.0
1979-07-03 01:18:39.950 ,5,1,0.,12.0,0.,12.0,0.,12.0,0.,12.0
1979-07-03 01:18:51.950 ,5,0,0.,12.0,0.,12.0,0.,12.0,0.,12.0
1979-07-03 01:19:03.950 ,5,0,0.,12.0,0.,12.0,0.,12.0,0.,12.0
1979-07-03 01:19:15.950 ,4,1,0.,12.0,0.,12.0,0.,12.0,0.,12.0
1979-07-03 01:19:27.950 ,4,1,0.,12.0,0.,12.0,0.,12.0,0.,12.0
1979-07-03 01:19:39.950 ,4,0,0.,12.0,0.,12.0,0.,12.0,0.,12.0
1979-07-03 01:19:51.950 ,4,0,0.,12.0,0.,12.0,0.,12.0,0.,12.0